Starlink 31496

operational
NORAD ID: 59211 Int'l Des: 2024-046 Owner: SPXS Country: US Constellation: starlink
LEOCIRCULAR

关于 Starlink 31496

正在加载描述...

实时位置

正在加载3D地球...

即将过境

高度历史

Altitude vs Time

uPlot chart will show altitude changes over time

两行轨道根数

1 59211U 24046L 26034.10893885 -.00000613 00000-0 -85596-5 0 9991
2 59211 53.1620 303.2860 0001505 103.3536 256.7633 15.30199231107926
Epoch: Feb 3, 2026 • Age: 52 hours

当前状态

高度 480.8 km
速度 7.63 km/s
星下点 52.94°N, 137.64°E
发射日期 Mar 11, 2024
运行时间 1.9 years
类型 internet

技术详情

分类 Payload
质量 730.00 kg
干质量 700.00 kg
总质量 730.00 kg
长度 0.30 m
直径 4.10 m
跨度 29.00 m
形状 Box + pan
制造商 SPXS
平台类型 Starlink V2M
阶段状态 In Orbit
所有者/国家 SPXS/US

大型星座

Loading constellations...